| time (UTC) | temp F | wind direction | speed MPH | gust MPH | rain 1hr in | rain 24hr in | rain mn in | humidity % | barometer mb |
| 20260505041018 | 55 | 0.0 | 0.0 | 0.00 | 0.71 | 0.49 | 93 | 1010.0 | |
| 20260505040017 | 55 | 0.0 | 0.0 | 0.00 | 0.71 | 0.49 | 93 | 1010.2 | |
| 20260505035017 | 55 | 0.0 | 0.0 | 0.00 | 0.71 | 0.49 | 93 | 1010.2 | |
| 20260505034017 | 55 | 0.0 | 0.0 | 0.00 | 0.71 | 0.49 | 93 | 1010.4 | |
| 20260505033037 | 55 | 0.0 | 1.0 | 0.00 | 0.71 | 0.49 | 93 | 1010.4 | |
| 20260505032018 | 55 | 0.0 | 0.0 | 0.00 | 0.71 | 0.49 | 93 | 1010.4 | |
| 20260505031019 | 54 | 0.0 | 0.0 | 0.01 | 0.71 | 0.49 | 93 | 1010.5 | |
| 20260505030017 | 54 | 0.0 | 0.0 | 0.01 | 0.71 | 0.49 | 93 | 1010.6 | |
| 20260505025017 | 54 | 0.0 | 0.0 | 0.01 | 0.71 | 0.49 | 93 | 1010.7 | |
| 20260505024037 | 54 | 0.0 | 0.0 | 0.02 | 0.71 | 0.49 | 93 | 1010.5 | |
| 20260505023017 | 54 | 0.0 | 0.0 | 0.04 | 0.71 | 0.49 | 93 | 1010.7 | |
| 20260505022017 | 54 | 0.0 | 2.0 | 0.13 | 0.71 | 0.49 | 93 | 1010.9 | |
| 20260505021018 | 55 | 0.0 | 2.0 | 0.20 | 0.70 | 0.48 | 93 | 1011.0 | |
| 20260505020017 | 55 | 0.0 | 2.0 | 0.26 | 0.70 | 0.48 | 93 | 1011.2 | |
| 20260505015018 | 55 | 113 | 1.0 | 3.0 | 0.31 | 0.70 | 0.48 | 93 | 1011.4 |
| 20260505014017 | 55 | 0.0 | 2.0 | 0.34 | 0.69 | 0.47 | 93 | 1011.5 | |
| 20260505013017 | 55 | 0.0 | 1.0 | 0.34 | 0.67 | 0.45 | 92 | 1011.7 | |
| 20260505012017 | 55 | 0.0 | 0.0 | 0.27 | 0.58 | 0.36 | 92 | 1012.2 | |
| 20260505011019 | 55 | 0.0 | 0.0 | 0.21 | 0.50 | 0.28 | 92 | 1012.3 | |
| 20260505010017 | 55 | 0.0 | 1.0 | 0.16 | 0.44 | 0.22 | 92 | 1012.5 | |
| 20260505005037 | 55 | 0.0 | 2.0 | 0.12 | 0.39 | 0.17 | 92 | 1012.5 | |
| 20260505004017 | 55 | 0.0 | 0.0 | 0.09 | 0.35 | 0.13 | 92 | 1012.3 | |
| 20260505003017 | 55 | 0.0 | 2.0 | 0.09 | 0.33 | 0.11 | 92 | 1012.4 | |
| 20260505002017 | 55 | 0.0 | 0.0 | 0.08 | 0.31 | 0.09 | 92 | 1012.5 | |
| 20260505001017 | 55 | 0.0 | 0.0 | 0.06 | 0.29 | 0.07 | 92 | 1012.7 | |
| 20260505000017 | 55 | 0.0 | 0.0 | 0.06 | 0.28 | 0.06 | 92 | 1012.8 | |
| 20260504235017 | 55 | 0.0 | 0.0 | 0.05 | 0.28 | 0.06 | 92 | 1013.1 | |
| 20260504234017 | 55 | 0.0 | 0.0 | 0.03 | 0.26 | 0.04 | 92 | 1013.0 | |
| 20260504233017 | 55 | 0.0 | 0.0 | 0.02 | 0.24 | 0.02 | 92 | 1013.0 | |
| 20260504232039 | 55 | 0.0 | 0.0 | 0.02 | 0.24 | 0.02 | 92 | 1013.1 | |
| 20260504231017 | 55 | 0.0 | 0.0 | 0.01 | 0.23 | 0.01 | 92 | 1013.2 | |
| 20260504230017 | 55 | 0.0 | 0.0 | 0.01 | 0.23 | 0.01 | 92 | 1013.2 | |
| 20260504225017 | 55 | 0.0 | 0.0 | 0.01 | 0.23 | 0.01 | 92 | 1013.3 | |
| 20260504224018 | 55 | 0.0 | 0.0 | 0.01 | 0.23 | 0.01 | 91 | 1013.3 | |
| 20260504223017 | 55 | 0.0 | 0.0 | 0.00 | 0.22 | 0.00 | 91 | 1013.5 | |
| 20260504222017 | 55 | 0.0 | 0.0 | 0.00 | 0.22 | 0.00 | 91 | 1013.7 | |
| 20260504221017 | 55 | 0.0 | 1.0 | 0.00 | 0.22 | 0.00 | 91 | 1013.8 | |
| 20260504220016 | 55 | 0.0 | 1.0 | 0.00 | 0.22 | 0.22 | 91 | 1013.8 | |
| 20260504215038 | 55 | 0.0 | 1.0 | 0.00 | 0.22 | 0.22 | 91 | 1014.0 | |
| 20260504214016 | 55 | 0.0 | 0.0 | 0.00 | 0.22 | 0.22 | 91 | 1014.3 | |
| 20260504213037 | 55 | 0.0 | 0.0 | 0.02 | 0.22 | 0.22 | 90 | 1014.4 | |
| 20260504212016 | 55 | 0.0 | 0.0 | 0.05 | 0.22 | 0.22 | 90 | 1014.5 | |
| 20260504211018 | 55 | 0.0 | 0.0 | 0.09 | 0.22 | 0.22 | 90 | 1014.6 | |
| 20260504210016 | 55 | 0.0 | 0.0 | 0.09 | 0.22 | 0.22 | 90 | 1014.7 | |
| 20260504205038 | 55 | 0.0 | 0.0 | 0.09 | 0.22 | 0.22 | 90 | 1014.8 | |
| 20260504204036 | 55 | 0.0 | 0.0 | 0.09 | 0.22 | 0.22 | 90 | 1014.9 | |
| 20260504203019 | 55 | 0.0 | 0.0 | 0.09 | 0.20 | 0.20 | 90 | 1015.0 | |
| 20260504202019 | 56 | 0.0 | 0.0 | 0.06 | 0.17 | 0.17 | 90 | 1015.0 | |
| 20260504201016 | 56 | 0.0 | 1.0 | 0.03 | 0.13 | 0.13 | 89 | 1015.1 | |
| 20260504200118 | 56 | 0.0 | 0.0 | 0.04 | 0.13 | 0.13 | 89 | 1015.0 | |
| 20260504195016 | 57 | 0.0 | 0.0 | 0.04 | 0.13 | 0.13 | 89 | 1015.0 | |
| 20260504194017 | 57 | 0.0 | 0.0 | 0.04 | 0.13 | 0.13 | 89 | 1015.0 | |
| 20260504193017 | 57 | 0.0 | 0.0 | 0.03 | 0.12 | 0.12 | 89 | 1014.9 | |
| 20260504192016 | 57 | 0.0 | 0.0 | 0.03 | 0.12 | 0.12 | 89 | 1015.1 | |
| 20260504191036 | 58 | 0.0 | 2.0 | 0.02 | 0.10 | 0.10 | 89 | 1014.9 | |
| 20260504190016 | 58 | 0.0 | 0.0 | 0.01 | 0.09 | 0.09 | 89 | 1014.7 | |
| 20260504185016 | 58 | 0.0 | 0.0 | 0.02 | 0.09 | 0.09 | 89 | 1014.8 | |
| 20260504184036 | 58 | 0.0 | 0.0 | 0.06 | 0.09 | 0.09 | 89 | 1014.7 | |
| 20260504183016 | 58 | 0.0 | 0.0 | 0.06 | 0.09 | 0.09 | 88 | 1014.7 | |
| 20260504182016 | 58 | 0.0 | 0.0 | 0.06 | 0.09 | 0.09 | 88 | 1014.6 | |
| 20260504181017 | 58 | 0.0 | 0.0 | 0.06 | 0.09 | 0.09 | 88 | 1014.6 | |
| 20260504180016 | 59 | 0.0 | 0.0 | 0.07 | 0.09 | 0.09 | 88 | 1014.7 | |
| 20260504175017 | 59 | 0.0 | 0.0 | 0.06 | 0.08 | 0.08 | 88 | 1014.6 | |
| 20260504174036 | 59 | 0.0 | 0.0 | 0.02 | 0.04 | 0.04 | 88 | 1014.7 | |
| 20260504173016 | 59 | 0.0 | 0.0 | 0.02 | 0.03 | 0.03 | 87 | 1015.1 | |
| 20260504172056 | 59 | 0.0 | 0.0 | 0.02 | 0.03 | 0.03 | 87 | 1015.1 | |
| 20260504171016 | 59 | 0.0 | 2.0 | 0.02 | 0.02 | 0.02 | 87 | 1014.8 | |
| 20260504151016 | 62 | 113 | 2.0 | 5.0 | 0.00 | 0.00 | 0.00 | 80 | 1015.2 |
| 20260504141017 | 64 | 135 | 2.0 | 6.0 | 0.00 | 0.00 | 0.00 | 75 | 1015.0 |
| 20260504081036 | 57 | 0.0 | 0.0 | 0.00 | 0.00 | 0.00 | 80 | 1016.7 |